Date,TemperatureHighF,TemperatureAvgF,TemperatureLowF,DewpointHighF,DewpointAvgF,DewpointLowF,HumidityHigh,HumidityAvg,HumidityLow,PressureMaxIn,PressureMinIn,WindSpeedMaxMPH,WindSpeedAvgMPH,GustSpeedMaxMPH,PrecipitationSumIn
2013-1-1,30,16,4,10,6,-5,82,66,43,30.42,30.30,8,2,9,0.00
2013-1-2,17,12,8,8,6,3,79,75,61,30.39,30.27,5,1,5,0.00
2013-1-3,32,16,0,11,3,-6,74,60,41,30.27,30.12,8,2,13,0.00
2013-1-4,40,26,18,17,9,2,53,47,40,30.27,30.18,14,5,14,0.00
2013-1-5,30,24,15,21,12,4,75,60,43,30.18,30.09,8,2,10,0.00
2013-1-6,41,31,23,20,17,13,77,57,42,30.12,30.03,10,4,11,0.00
2013-1-7,51,40,32,29,25,17,71,55,39,30.12,29.97,19,5,20,0.00
2013-1-8,50,43,34,30,27,23,68,54,43,30.12,29.97,19,9,29,0.00
2013-1-9,46,36,25,31,20,13,74,53,42,29.97,29.74,29,5,29,0.00
2013-1-10,34,26,19,21,14,9,81,61,42,29.94,29.85,11,3,19,0.00
2013-1-11,29,20,10,10,5,-2,66,52,42,30.12,29.94,9,2,12,0.00
2013-1-12,26,13,4,7,-2,-11,56,51,42,30.21,30.12,8,2,8,0.00
2013-1-13,29,14,2,8,-3,-12,50,46,41,30.27,30.18,6,2,8,0.00
2013-1-14,40,22,8,17,5,-8,71,48,39,30.33,30.24,12,3,15,0.00
2013-1-15,45,29,16,21,13,5,73,52,38,30.47,30.33,9,4,9,0.00
2013-1-16,53,34,21,26,14,6,53,44,36,30.47,30.39,10,4,10,0.00
2013-1-17,49,34,26,24,14,7,47,42,37,30.42,30.30,10,5,13,0.00
2013-1-18,48,33,23,24,13,5,46,42,37,30.30,30.24,11,5,13,0.00
2013-1-19,52,35,23,26,14,6,52,43,36,30.33,30.24,11,4,11,0.00
2013-1-20,49,31,21,24,12,6,60,46,37,30.33,30.24,10,3,10,0.00
2013-1-21,50,33,23,25,12,4,46,42,37,30.27,30.12,13,5,15,0.00
2013-1-22,48,31,25,23,13,6,64,47,37,30.15,30.00,11,4,11,0.00
2013-1-23,54,40,26,28,21,12,71,48,36,30.06,29.85,15,4,22,0.00
2013-1-24,52,43,34,32,28,24,85,56,38,30.12,30.06,19,5,20,0.00
2013-1-25,47,43,37,37,33,30,85,67,54,30.09,29.91,22,6,24,0.04
2013-1-26,43,34,24,31,19,15,90,57,39,29.97,29.85,11,3,16,0.00
2013-1-27,40,31,20,22,17,14,86,58,40,30.03,29.94,12,3,13,0.00
2013-1-28,40,35,0,20,18,0,61,49,41,30.03,29.94,23,4,24,0.00
2013-1-29,47,40,36,25,22,19,62,49,42,30.30,30.03,15,4,19,0.00
2013-1-30,50,40,33,28,24,20,72,53,41,30.33,30.30,8,3,13,0.00
2013-1-31,49,38,28,27,24,19,75,58,39,30.33,30.21,11,3,11,0.00
2013-2-1,50,35,24,27,21,15,83,60,37,30.33,30.21,7,2,9,0.00
2013-2-2,50,34,21,26,21,14,86,62,39,30.33,30.21,6,2,8,0.00
2013-2-3,56,40,29,28,23,18,76,51,35,30.21,30.09,10,3,13,0.00
2013-2-4,53,42,33,27,21,17,54,44,36,30.12,29.91,15,3,15,0.00
2013-2-5,49,42,33,26,21,17,55,42,37,30.00,29.88,15,6,21,0.00
2013-2-6,48,39,31,23,19,16,57,45,38,30.03,29.85,15,6,22,0.00
2013-2-7,40,32,21,24,17,10,72,53,40,30.00,29.85,9,2,12,0.00
2013-2-8,39,27,15,20,14,8,76,59,40,30.09,30.00,10,2,15,0.00
2013-2-9,43,28,14,21,15,6,78,59,41,30.15,30.03,9,2,13,0.00
2013-2-10,45,31,19,25,17,10,79,58,38,30.21,30.12,8,1,10,0.00
2013-2-11,49,35,19,25,19,11,81,54,37,30.24,30.12,9,3,13,0.00
2013-2-12,49,37,25,27,22,16,86,57,38,30.33,30.24,13,4,14,0.00
2013-2-13,48,37,26,26,23,18,84,58,39,30.36,30.27,10,2,11,0.00
2013-2-14,53,37,25,32,24,20,94,63,38,30.42,30.36,9,2,10,0.00
2013-2-15,58,38,25,32,26,20,91,65,36,30.42,30.21,11,2,11,0.00
2013-2-16,56,40,27,30,22,15,87,49,36,30.21,30.06,15,5,17,0.00
2013-2-17,43,31,16,19,15,10,83,55,38,30.12,30.00,10,2,10,0.00
2013-2-18,40,30,20,18,15,11,73,53,40,30.00,29.71,6,2,9,0.00
2013-2-19,41,29,20,19,15,9,74,55,39,29.88,29.65,10,2,11,0.00
2013-2-20,43,31,18,19,15,9,75,55,39,29.97,29.85,10,2,13,0.00
2013-2-21,40,33,23,20,17,14,80,54,40,30.09,29.97,11,3,11,0.00
2013-2-22,46,37,28,28,21,16,85,54,40,30.09,29.82,25,8,29,0.00
2013-2-23,38,30,20,22,15,10,78,55,40,30.27,29.94,14,4,21,0.00
2013-2-24,46,32,18,23,17,11,82,55,38,30.30,30.03,22,4,22,0.00
2013-2-25,43,35,22,28,18,10,77,51,39,30.21,29.97,20,6,24,0.00
2013-2-26,49,34,17,24,16,10,81,50,37,30.24,30.15,13,4,15,0.00
2013-2-27,50,39,27,25,18,8,47,41,38,30.24,30.18,15,5,17,0.00
2013-2-28,57,46,40,33,29,21,72,53,38,30.39,30.18,23,7,23,0.00
2013-3-1,62,48,36,33,28,21,74,48,34,30.42,30.27,13,4,15,0.00
2013-3-2,58,47,34,31,26,23,67,45,35,30.27,30.06,13,4,14,0.00
2013-3-3,44,34,20,27,17,6,75,50,38,30.15,30.06,11,3,13,0.00
2013-3-4,51,31,13,26,13,2,75,48,37,30.15,29.91,11,2,17,0.00
2013-3-5,43,33,22,26,17,8,76,54,40,29.91,29.68,8,2,11,0.00
2013-3-6,44,35,30,32,23,16,92,64,40,29.91,29.53,26,5,26,0.00
2013-3-7,46,35,23,26,18,13,79,52,38,29.97,29.88,10,4,13,0.00
2013-3-8,46,31,22,29,20,12,82,64,39,30.12,29.94,13,1,18,0.08
2013-3-9,55,34,15,28,17,7,75,50,36,30.39,30.12,10,2,13,0.00
2013-3-10,61,43,25,33,23,0,68,46,35,30.39,30.27,15,4,15,0.00
2013-3-11,58,44,30,33,29,23,91,58,37,30.30,30.18,8,2,11,0.00
2013-3-12,64,47,32,35,29,20,93,52,34,30.21,30.06,12,3,12,0.00
2013-3-13,68,49,37,37,27,21,58,43,33,30.18,30.09,8,1,11,0.00
2013-3-14,69,54,36,39,29,20,65,39,33,30.15,30.03,16,6,22,0.00
2013-3-15,60,43,29,32,25,17,79,49,35,30.18,30.09,9,2,13,0.00
2013-3-16,54,38,25,31,24,18,84,59,36,30.12,29.91,22,4,25,0.00
2013-3-17,43,33,23,24,15,9,72,48,38,30.12,29.97,17,3,17,0.00
2013-3-18,55,32,13,28,14,4,73,49,36,30.15,30.06,12,2,12,0.00
2013-3-19,51,37,24,41,21,9,94,55,37,30.12,29.74,10,1,16,0.04
2013-3-20,52,42,28,38,27,16,85,55,38,30.03,29.65,21,6,30,0.08
2013-3-21,44,32,19,21,15,9,72,50,38,30.12,30.03,15,4,19,0.00
2013-3-22,40,31,22,19,13,9,73,49,39,30.21,30.12,17,5,24,0.00
2013-3-23,45,32,21,21,14,8,67,49,38,30.24,30.12,9,2,11,0.00
2013-3-24,48,34,19,24,15,7,64,46,37,30.18,30.06,11,2,11,0.00
2013-3-25,52,41,29,27,21,16,63,45,37,30.06,29.88,9,2,11,0.00
2013-3-26,53,43,36,34,28,21,75,56,39,29.97,29.91,8,2,9,0.00
2013-3-27,59,43,27,40,31,21,92,65,36,29.97,29.88,17,2,23,0.04
2013-3-28,60,46,37,41,36,30,93,72,36,30.12,29.97,11,2,14,0.16
2013-3-29,65,48,36,43,36,28,94,66,35,30.18,30.09,13,2,13,0.00
2013-3-30,70,50,31,40,33,25,97,56,33,30.18,30.03,13,2,13,0.00
2013-3-31,68,50,30,38,32,23,81,52,33,30.06,29.91,11,3,13,0.00
2013-4-1,64,49,0,42,33,0,85,56,35,30.09,29.94,12,3,17,0.00
2013-4-2,64,47,30,38,30,25,97,56,34,30.15,30.06,13,2,16,0.00
2013-4-3,69,52,32,38,31,24,83,49,33,30.12,29.94,11,3,13,0.00
2013-4-4,65,52,43,37,31,28,77,45,34,29.97,29.74,24,6,30,0.00
2013-4-5,58,48,40,35,30,28,65,51,36,29.97,29.88,20,8,23,0.00
2013-4-6,56,47,41,32,28,24,67,49,36,29.97,29.80,26,8,27,0.00
2013-4-7,55,43,33,31,24,17,66,47,36,29.85,29.65,32,9,32,0.00
2013-4-8,48,37,23,23,19,12,69,49,38,30.18,29.85,18,4,20,0.00
2013-4-9,60,41,17,32,22,8,73,49,34,30.27,30.18,14,2,14,0.00
2013-4-10,62,48,33,36,28,21,74,47,36,30.21,30.06,29,6,29,0.00
2013-4-11,55,40,19,28,22,12,81,49,36,30.21,30.09,15,3,15,0.00
2013-4-12,64,44,21,35,23,8,76,46,34,30.12,29.77,26,6,26,0.00
2013-4-13,52,40,30,27,19,14,51,43,36,30.00,29.80,17,7,25,0.00
2013-4-14,51,34,22,25,16,9,79,49,37,30.03,29.85,11,3,15,0.00
2013-4-15,42,32,24,30,24,16,88,74,42,30.09,29.85,15,2,17,0.08
2013-4-16,45,35,27,28,24,19,87,66,39,30.30,30.06,16,3,16,0.04
2013-4-17,52,36,18,26,20,11,79,54,36,30.39,30.30,13,3,16,0.04
2013-4-18,65,46,30,36,26,17,62,46,34,30.36,30.30,10,4,15,0.00
2013-4-19,60,49,41,35,30,26,67,49,35,30.30,30.12,17,6,27,0.00
2013-4-20,66,45,28,36,27,19,83,51,34,30.24,30.18,15,3,15,0.00
2013-4-21,66,45,25,36,27,18,93,52,34,30.24,30.15,17,4,19,0.00
2013-4-22,64,44,26,35,24,7,71,47,34,30.39,30.24,13,4,15,0.00
2013-4-23,72,42,14,41,19,0,56,40,32,30.39,30.12,12,3,21,0.00
2013-4-24,75,49,20,42,23,2,45,37,31,30.30,30.09,9,2,13,0.00
2013-4-25,80,54,30,45,28,10,46,37,30,30.21,30.06,12,4,15,0.00
2013-4-26,83,58,35,47,32,19,66,40,29,30.30,30.21,13,3,16,0.00
2013-4-27,74,58,39,42,32,19,54,37,31,30.33,30.21,15,4,24,0.00
2013-4-28,66,51,33,36,27,18,58,40,33,30.27,30.15,17,4,19,0.00
2013-4-29,61,50,35,34,28,16,54,42,34,30.15,30.06,26,8,26,0.00
2013-4-30,59,39,24,32,18,9,56,43,35,30.42,30.15,17,4,18,0.00
2013-5-1,71,43,16,40,21,4,63,42,32,30.56,30.42,11,3,15,0.00
2013-5-2,83,54,27,48,28,9,53,37,30,30.56,30.33,15,3,15,0.00
2013-5-3,78,55,31,45,28,12,46,37,31,30.36,30.24,15,3,17,0.00
2013-5-4,76,54,30,44,28,14,53,38,31,30.30,30.06,16,5,24,0.00
2013-5-5,79,57,34,45,31,17,54,38,31,30.09,29.94,21,5,21,0.00
2013-5-6,82,63,38,47,35,21,49,35,29,30.03,29.91,17,4,17,0.00
2013-5-7,87,63,40,51,38,30,72,42,29,30.12,30.00,22,4,22,0.00
2013-5-8,84,62,41,48,38,30,72,44,29,30.24,30.12,13,3,21,0.00
2013-5-9,84,63,50,54,43,37,85,52,29,30.30,30.21,17,4,27,0.20
2013-5-10,87,67,50,51,43,38,77,45,29,30.39,30.27,20,4,20,0.00
2013-5-11,90,70,51,52,45,39,68,43,28,30.39,30.21,16,3,18,0.00
2013-5-12,87,69,53,51,44,36,70,42,29,30.30,30.18,17,4,23,0.00
2013-5-13,73,58,42,42,36,27,77,46,32,30.33,30.21,25,5,29,0.00
2013-5-14,72,52,30,40,30,22,74,47,32,30.33,30.21,11,3,15,0.00
2013-5-15,66,51,36,42,31,24,69,49,34,30.27,30.18,11,2,15,0.00
2013-5-16,63,50,36,40,34,28,82,58,35,30.21,30.09,12,2,19,0.04
2013-5-17,60,49,36,41,33,25,87,55,35,30.27,30.15,13,2,17,0.04
2013-5-18,62,46,30,34,29,23,85,53,35,30.42,30.27,15,3,17,0.00
2013-5-19,70,50,31,39,30,21,85,50,32,30.50,30.42,11,4,19,0.00
2013-5-20,84,56,29,48,32,18,76,43,29,30.50,30.12,10,3,13,0.00
2013-5-21,60,50,33,36,27,17,61,42,35,30.15,30.00,23,7,31,0.00
2013-5-22,52,41,30,27,21,14,53,44,37,30.15,30.12,17,7,22,0.00
2013-5-23,63,46,29,34,25,18,71,45,34,30.21,30.15,17,3,17,0.00
2013-5-24,62,48,35,34,27,20,69,45,34,30.24,30.18,13,4,17,0.00
2013-5-25,67,48,26,40,28,15,74,48,33,30.27,30.15,11,3,13,0.00
2013-5-26,63,51,40,45,36,29,92,60,34,30.27,30.18,11,2,14,0.08
2013-5-27,62,50,36,39,33,28,82,51,38,30.24,30.03,19,5,22,0.00
2013-5-28,74,55,40,42,33,28,75,45,31,30.15,30.03,15,3,15,0.00
2013-5-29,62,52,44,44,33,27,91,51,35,30.24,29.94,25,5,25,0.08
2013-5-30,67,49,31,37,28,22,76,47,33,30.42,30.24,13,3,17,0.00
2013-5-31,78,53,28,44,30,18,70,43,31,30.50,30.39,12,3,13,0.00
2013-6-1,83,61,35,48,35,21,59,39,29,30.44,30.24,11,3,15,0.00
2013-6-2,78,58,39,44,35,25,70,44,31,30.30,30.18,13,4,17,0.00
2013-6-3,83,58,33,48,33,21,67,41,29,30.33,30.21,11,3,13,0.00
2013-6-4,86,62,36,50,33,16,45,35,29,30.36,30.27,12,3,15,0.00
2013-6-5,94,69,41,55,39,23,49,35,27,30.36,30.21,11,3,13,0.00
2013-6-6,91,70,47,53,41,30,55,37,28,30.30,30.21,13,3,13,0.00
2013-6-7,88,68,47,51,41,32,65,39,28,30.36,30.27,15,4,23,0.00
2013-6-8,94,70,45,55,42,31,72,39,27,30.39,30.27,10,3,15,0.00
2013-6-9,87,67,46,51,38,27,52,35,29,30.30,30.18,13,3,17,0.00
2013-6-10,85,60,34,49,33,18,52,37,29,30.24,30.06,15,4,17,0.00
2013-6-11,67,52,34,37,29,20,76,42,33,30.39,30.18,13,4,18,0.00
2013-6-12,68,50,30,38,28,18,70,45,33,30.42,30.36,15,4,15,0.00
2013-6-13,62,53,38,34,30,23,63,42,34,30.56,30.42,15,6,21,0.00
2013-6-14,81,55,29,46,32,20,76,45,30,30.56,30.30,10,3,13,0.00
2013-6-15,85,63,36,49,35,19,51,37,29,30.36,30.21,11,3,16,0.00
2013-6-16,83,64,44,48,38,30,60,40,29,30.47,30.33,18,3,18,0.00
2013-6-17,81,62,41,46,38,30,72,43,30,30.47,30.27,16,4,17,0.00
2013-6-18,66,55,48,45,35,30,78,49,34,30.36,30.24,17,4,17,0.04
2013-6-19,62,50,41,37,32,28,78,51,35,30.47,30.30,13,3,17,0.00
2013-6-20,69,50,29,39,30,22,77,49,33,30.50,30.42,13,3,21,0.00
2013-6-21,63,52,38,39,32,26,77,48,35,30.56,30.50,12,3,15,0.00
2013-6-22,79,60,34,45,36,25,79,43,30,30.56,30.30,10,3,12,0.00
2013-6-23,65,59,54,55,46,36,92,65,39,30.33,30.15,6,1,9,0.28
2013-6-24,62,54,47,54,45,39,93,74,45,30.24,30.15,10,2,15,0.20
2013-6-25,67,58,50,45,39,35,78,51,36,30.39,30.21,13,5,20,0.00
2013-6-26,69,60,51,53,44,40,72,56,41,30.56,30.39,9,3,11,0.00
2013-6-27,90,67,44,53,45,38,84,49,28,30.65,30.53,14,3,17,0.00
2013-6-28,95,74,52,56,48,44,75,44,27,30.68,30.47,11,3,14,0.00
2013-6-29,90,75,59,53,48,42,70,41,28,30.56,30.44,12,3,16,0.00
2013-6-30,100,78,54,59,49,43,70,39,26,30.53,30.36,15,4,15,0.00
2013-7-1,102,83,67,60,51,44,47,33,25,30.59,30.44,13,4,17,0.00
2013-7-2,101,82,60,59,52,47,70,39,25,30.62,30.50,14,3,18,0.00
2013-7-3,95,77,59,56,48,37,64,39,27,30.65,30.53,17,3,17,0.00
2013-7-4,89,69,48,51,40,31,55,36,28,30.65,30.50,16,4,17,0.00
2013-7-5,85,62,41,49,36,26,67,39,29,30.59,30.47,13,3,16,0.00
2013-7-6,89,64,36,51,35,16,49,35,28,30.59,30.44,15,3,18,0.00
2013-7-7,93,69,44,54,41,28,55,37,27,30.59,30.47,14,4,15,0.00
2013-7-8,94,70,48,55,43,33,79,40,27,30.71,30.59,11,3,15,0.00
2013-7-9,100,75,48,59,43,30,49,34,26,30.77,30.62,13,3,17,0.00
2013-7-10,93,74,55,54,44,37,56,36,27,30.71,30.53,15,3,17,0.00
2013-7-11,88,68,47,51,39,28,50,36,28,30.68,30.53,13,3,17,0.00
2013-7-12,82,62,40,48,34,20,54,36,30,30.71,30.56,19,4,19,0.00
2013-7-13,87,62,37,51,35,21,55,37,29,30.83,30.68,12,3,15,0.00
2013-7-14,98,70,41,57,39,18,39,33,26,30.83,30.62,13,3,17,0.00
2013-7-15,95,71,47,56,41,27,49,34,27,30.74,30.53,17,4,17,0.00
2013-7-16,91,72,60,53,41,32,35,32,28,30.65,30.53,12,5,15,0.00
2013-7-17,95,74,54,56,42,31,43,33,27,30.83,30.65,13,5,19,0.00
2013-7-18,99,73,46,58,42,27,48,34,26,30.86,30.68,13,3,17,0.00
2013-7-19,101,74,47,59,43,28,49,34,25,30.80,30.65,13,3,15,0.00
2013-7-20,101,74,48,59,42,29,50,33,25,30.74,30.59,13,3,15,0.00
2013-7-21,101,75,46,59,43,22,47,33,25,30.68,30.59,16,4,22,0.00
2013-7-22,102,76,50,59,43,27,44,32,25,30.74,30.62,15,4,15,0.00
2013-7-23,100,77,50,59,44,26,47,32,25,30.77,30.62,13,4,15,0.00
2013-7-24,98,77,56,57,44,33,44,32,26,30.77,30.68,13,3,13,0.00
2013-7-25,103,77,50,60,44,28,45,32,25,30.80,30.68,13,3,16,0.00
2013-7-26,101,78,56,59,44,29,36,31,25,30.83,30.74,13,4,17,0.00
2013-7-27,93,70,46,54,39,22,41,33,27,30.83,30.65,16,3,17,0.00
2013-7-28,91,65,40,53,37,24,53,36,28,30.74,30.59,11,3,19,0.00
2013-7-29,84,66,42,48,38,27,69,37,29,30.74,30.59,10,3,13,0.00
2013-7-30,90,69,44,52,41,29,68,38,28,30.83,30.71,15,4,15,0.00
2013-7-31,84,68,54,48,40,32,69,37,29,30.83,30.68,16,2,16,0.00
2013-8-1,74,60,48,52,43,35,88,56,32,30.80,30.68,17,3,17,0.08
2013-8-2,82,59,39,47,38,32,90,48,30,30.86,30.71,11,3,13,0.00
2013-8-3,92,66,41,53,39,29,69,40,27,30.86,30.68,12,3,14,0.00
2013-8-4,96,72,47,56,42,30,55,36,27,30.83,30.65,13,4,15,0.00
2013-8-5,95,73,51,55,42,31,49,34,27,30.80,30.62,15,3,15,0.00
2013-8-6,97,74,49,57,44,31,55,35,26,30.77,30.65,13,4,17,0.00
2013-8-7,91,71,51,53,40,30,46,34,28,30.77,30.68,13,3,20,0.00
2013-8-8,88,71,51,51,41,30,49,34,28,30.77,30.62,13,2,16,0.00
2013-8-9,86,68,52,50,42,36,71,40,29,30.74,30.59,25,3,25,0.04
2013-8-10,80,60,46,47,42,38,93,54,30,30.80,30.68,20,2,20,0.00
2013-8-11,80,65,50,46,41,38,73,44,30,30.83,30.71,11,4,17,0.00
2013-8-12,84,66,46,48,42,35,74,44,29,30.83,30.68,11,3,13,0.00
2013-8-13,94,70,49,55,43,33,66,40,27,30.86,30.68,13,4,14,0.00
2013-8-14,91,71,51,53,43,34,53,37,28,30.77,30.62,14,3,18,0.00
2013-8-15,91,70,50,53,43,33,67,39,28,30.77,30.62,23,3,23,0.00
2013-8-16,89,70,52,53,45,39,65,43,28,30.80,30.71,17,3,17,0.00
2013-8-17,87,68,51,51,44,36,74,45,29,30.86,30.68,17,3,17,0.00
2013-8-18,100,70,50,59,44,35,72,42,26,30.89,30.77,12,3,12,0.00
2013-8-19,98,71,47,57,43,32,68,39,26,30.89,30.71,16,4,16,0.00
2013-8-20,95,66,44,56,40,28,63,39,27,30.86,30.71,13,2,13,0.00
2013-8-21,88,68,47,51,37,22,38,33,28,30.83,30.68,11,3,11,0.00
2013-8-22,84,65,54,48,40,28,63,41,29,30.77,30.68,26,3,26,0.00
2013-8-23,86,68,54,49,42,38,62,42,29,30.71,30.56,17,5,17,0.00
2013-8-24,81,62,46,56,43,35,83,54,30,30.68,30.56,17,2,17,0.08
2013-8-25,73,59,52,59,48,42,87,70,35,30.74,30.62,26,1,26,0.31
2013-8-27,93,72,0,54,44,0,61,36,27,30.77,30.53,14,4,14,0.08
2013-8-28,88,69,50,51,45,41,79,45,29,30.71,30.56,20,4,20,0.00
2013-8-29,86,68,56,49,44,37,72,45,29,30.83,30.68,20,4,20,0.00
2013-8-30,85,67,49,50,44,39,89,49,29,30.95,30.74,14,3,14,0.00
2013-8-31,88,69,47,51,44,38,76,44,29,30.86,30.59,15,3,15,0.00
2013-9-1,94,72,50,55,45,36,65,39,27,30.71,30.53,17,4,20,0.00
2013-9-2,86,67,49,50,44,39,73,46,29,30.74,30.56,17,3,17,0.00
2013-9-3,84,64,48,48,42,38,86,48,29,30.80,30.68,22,4,22,0.00
2013-9-4,85,64,43,49,41,34,84,47,29,30.86,30.68,18,4,18,0.00
2013-9-5,73,57,45,49,40,35,79,55,32,30.89,30.71,31,2,31,0.16
2013-9-6,72,58,45,44,39,36,85,51,33,31.01,30.86,16,4,16,0.04
2013-9-7,78,60,39,45,39,33,88,50,31,31.01,30.83,15,3,15,0.00
2013-9-8,75,60,43,44,38,31,75,47,31,31.95,28.38,15,2,15,0.00
2013-9-9,84,65,45,48,39,30,69,40,29,31.06,28.38,17,3,17,0.00
2013-9-10,86,67,45,50,40,29,64,38,29,28.38,28.38,13,3,13,0.00
2013-9-11,92,69,47,53,40,30,56,37,27,28.38,28.38,13,3,13,0.00
2013-9-12,93,71,49,53,41,31,52,36,27,30.92,28.38,12,2,12,0.00
2013-9-13,83,68,50,48,39,30,47,36,29,28.38,28.38,10,2,10,0.00
2013-9-14,92,70,49,53,43,34,65,39,27,28.38,28.38,15,3,15,0.00
2013-9-15,90,70,52,52,42,34,54,37,28,28.38,28.38,19,4,19,0.00
2013-9-16,73,58,42,41,36,30,73,46,32,28.38,28.38,13,3,13,0.00
2013-9-17,61,51,45,47,35,30,76,54,38,28.38,28.38,21,3,21,0.04
2013-9-18,70,52,38,39,31,21,76,49,33,28.38,28.38,11,2,14,0.00
2013-9-19,85,56,33,48,33,21,80,45,29,28.38,28.38,17,3,17,0.00
2013-9-20,78,56,36,45,32,20,56,41,31,29.77,28.38,17,5,17,11.54
2013-9-21,67,55,43,40,33,31,71,45,33,29.80,29.71,17,6,17,0.00
2013-9-22,64,49,35,39,33,29,85,56,35,29.85,29.77,27,6,27,0.00
2013-9-23,66,51,33,37,32,27,85,51,34,29.97,29.85,25,4,25,0.00
2013-9-24,53,47,40,43,34,28,82,62,41,29.97,29.82,10,2,12,0.04
2013-9-25,52,43,32,36,30,22,85,61,38,29.97,29.80,15,2,15,0.00
2013-9-26,56,39,24,34,26,18,82,61,37,30.12,29.97,13,2,13,0.00
2013-9-27,64,47,27,36,30,20,83,54,33,30.12,29.97,18,5,18,0.00
2013-9-28,64,56,46,46,37,34,86,50,35,30.00,29.65,29,10,29,0.20
2013-9-29,53,47,42,46,36,26,92,66,39,29.80,29.56,29,9,29,0.43
2013-9-30,54,46,36,46,29,23,88,55,37,29.97,29.62,20,6,25,0.04
2013-10-1,54,42,29,33,26,21,82,54,37,30.15,29.94,21,4,21,0.04
2013-10-2,51,38,26,32,24,22,89,60,37,30.15,29.97,15,3,15,0.00
2013-10-3,52,38,28,32,24,18,83,60,38,30.33,30.06,11,2,11,0.00
2013-10-4,60,40,24,32,24,17,90,55,35,30.42,30.33,10,2,10,0.00
2013-10-5,76,48,28,43,28,18,77,49,31,30.36,30.18,11,3,11,0.00
2013-10-6,74,52,32,42,29,17,70,43,31,30.21,29.97,15,3,15,0.00
2013-10-7,59,48,32,32,26,21,69,42,35,30.06,29.94,16,5,16,0.00
2013-10-8,50,41,30,36,28,20,80,61,38,30.06,29.91,12,3,12,0.00
2013-10-9,46,39,32,31,28,25,83,64,46,30.00,29.94,11,3,13,0.00
2013-10-10,59,43,28,31,26,18,78,53,35,30.03,29.88,21,3,21,0.00
2013-10-11,55,43,30,29,26,20,85,54,37,30.06,30.00,11,3,11,0.00
2013-10-12,50,39,29,33,26,20,79,61,39,30.09,29.97,13,2,13,0.00
2013-10-13,51,43,29,34,29,19,78,60,39,30.24,30.09,8,3,8,0.00
2013-10-14,55,38,22,29,22,14,73,53,36,30.30,30.24,11,2,11,0.00
2013-10-15,61,38,19,33,20,11,74,50,34,30.33,30.12,11,2,11,0.00
2013-10-16,63,45,30,34,23,14,61,42,34,30.15,30.06,13,3,13,0.00
2013-10-17,61,40,24,33,21,12,62,48,35,30.21,30.15,10,1,10,0.00
2013-10-18,63,41,24,34,23,14,70,50,34,30.24,30.12,9,1,9,0.00
2013-10-19,75,49,29,42,28,16,87,47,31,30.15,30.06,10,2,10,0.00
2013-10-20,70,47,28,39,25,14,62,43,33,30.18,30.09,9,2,9,0.00
2013-10-21,70,48,31,39,28,18,73,46,33,30.15,30.06,11,2,11,0.00
2013-10-22,69,47,30,39,28,20,81,50,33,30.15,30.03,10,2,10,0.00
2013-10-23,67,46,31,37,27,20,85,50,33,30.09,30.00,11,2,11,0.00
2013-10-24,68,46,28,37,27,18,91,51,33,30.12,30.03,9,1,9,0.00
2013-10-25,70,48,31,39,28,18,79,48,32,30.21,30.12,10,2,10,0.00
2013-10-26,70,47,30,39,27,17,63,46,33,30.24,30.09,13,3,13,0.00
2013-10-27,56,39,29,40,30,19,95,71,36,30.09,29.74,30,4,30,0.12
2013-10-28,40,35,32,39,22,13,96,60,43,29.88,29.77,20,6,20,0.00
2013-10-29,46,32,20,21,14,10,64,49,38,30.00,29.88,8,1,8,0.00
2013-10-30,56,38,23,30,22,12,79,54,35,30.12,30.00,8,3,8,0.00
2013-10-31,60,48,34,38,32,23,74,55,38,30.21,30.09,13,3,13,0.00
2013-11-1,58,44,29,39,32,24,96,65,38,30.24,29.94,12,2,12,0.00
2013-11-2,53,43,28,38,26,16,73,51,38,30.00,29.77,27,7,27,0.00
2013-11-3,44,35,24,26,20,17,81,58,39,30.06,29.97,20,3,20,0.00
2013-11-4,48,39,32,24,23,21,70,52,38,30.09,30.03,15,3,15,0.00
2013-11-5,54,45,39,37,31,23,76,57,44,30.18,30.06,20,6,20,0.00
2013-11-6,59,47,36,43,36,33,93,69,41,30.24,30.09,15,2,15,0.00
2013-11-7,57,45,32,42,30,19,85,57,40,30.09,29.88,24,4,24,0.04
2013-11-8,46,38,28,27,22,20,77,54,39,30.12,30.06,13,2,13,0.00
2013-11-9,50,36,24,29,24,17,86,64,38,30.06,30.00,13,2,13,0.00
2013-11-10,63,43,29,34,29,22,88,61,34,30.12,30.03,17,2,17,0.00
2013-11-11,42,38,28,35,30,21,88,75,61,30.21,30.12,6,1,6,0.00
2013-11-12,60,44,30,37,31,24,89,65,37,30.33,30.15,17,3,17,0.00
2013-11-13,56,38,25,37,24,16,86,61,36,30.36,30.21,9,1,9,0.00
2013-11-14,48,34,22,24,19,13,86,57,38,30.21,29.97,15,2,15,0.00
2013-11-15,45,34,18,22,18,12,81,54,39,30.00,29.56,20,4,20,0.00
2013-11-16,49,41,35,24,21,19,60,45,37,29.80,29.50,20,4,20,0.00
2013-11-17,50,39,28,25,20,14,73,48,38,29.97,29.80,19,6,19,0.00
2013-11-18,51,45,40,30,24,19,57,44,38,29.94,29.80,27,8,27,0.00
2013-11-19,54,46,41,35,31,28,63,56,43,29.82,29.77,25,8,25,0.00
2013-11-20,42,30,14,34,13,-4,78,51,41,30.27,29.82,15,5,15,0.00
2013-11-21,31,15,2,10,-4,-15,49,44,40,30.50,30.27,11,1,11,0.00
2013-11-22,34,16,2,12,-2,-15,52,44,40,30.53,30.42,9,2,9,0.00
2013-11-23,36,16,2,14,-2,-14,56,44,40,30.44,30.21,8,1,8,0.00
2013-11-24,55,26,5,28,6,-11,78,43,36,30.24,30.12,8,2,8,0.00
2013-11-25,49,26,11,24,8,-1,61,47,37,30.30,30.24,8,1,8,0.00
2013-11-26,50,27,13,24,9,1,66,48,37,30.24,30.09,8,1,8,0.00
2013-11-27,42,27,17,19,11,4,59,50,40,30.09,30.00,8,1,8,0.00
2013-11-28,51,27,10,26,10,-2,73,50,37,30.15,30.03,6,1,6,0.00
2013-11-29,56,39,22,30,19,13,71,47,35,30.24,30.15,11,2,11,0.00
2013-11-30,55,40,31,31,25,15,77,55,37,30.30,30.18,17,2,17,0.00
2013-12-1,58,51,46,35,30,25,58,44,37,30.18,29.88,29,10,29,0.00
2013-12-2,50,37,25,36,22,9,86,56,41,29.91,29.80,22,6,22,0.08
2013-12-3,26,20,12,17,6,-3,71,56,44,30.09,29.88,17,3,17,0.08
2013-12-4,20,8,-5,1,-8,-21,52,46,43,30.15,30.06,10,2,10,0.00
2013-12-5,24,8,-6,4,-8,-22,51,43,42,30.15,30.00,8,2,8,0.00
2013-12-6,11,9,6,-3,-6,-8,51,51,51,30.03,29.85,12,3,12,0.00
2013-12-7,8,-2,-26,-6,-16,-38,51,51,51,30.21,29.88,15,4,15,0.00
2013-12-8,17,-4,-18,0,-18,-31,51,49,46,30.39,30.18,10,3,10,0.00
2013-12-9,29,12,-3,8,-4,-18,56,47,42,30.39,30.27,12,4,12,0.00
2013-12-10,38,21,7,16,6,-5,69,51,40,30.30,30.24,9,2,9,0.00
2013-12-11,40,26,7,18,10,-5,81,54,40,30.27,30.18,11,5,13,0.04
2013-12-12,43,32,21,24,14,6,63,47,39,30.18,30.03,16,5,16,0.00
2013-12-13,48,33,24,25,20,15,88,61,40,30.36,30.12,11,2,12,0.00
2013-12-14,47,36,26,23,20,16,77,53,39,30.36,30.30,19,5,19,0.00
2013-12-15,57,41,28,33,23,17,91,50,35,30.36,30.27,13,3,13,0.00
2013-12-16,52,37,26,31,20,14,92,53,36,30.36,30.24,9,3,9,0.00
2013-12-17,56,41,30,29,19,14,59,42,36,30.24,30.06,13,4,13,0.00
2013-12-18,42,35,29,30,22,17,86,60,43,30.06,29.88,11,2,11,0.00
2013-12-19,32,25,13,21,8,0,67,49,41,30.15,29.94,0,0,0,0.00
2013-12-20,44,33,21,30,20,3,74,61,44,30.00,29.80,13,2,13,0.00
2013-12-21,51,40,32,32,24,19,84,53,38,30.12,29.82,15,3,15,0.00
2013-12-22,55,41,32,30,26,20,72,55,36,30.27,30.12,8,2,10,0.00
2013-12-23,54,45,36,31,25,19,59,46,36,30.39,30.18,28,5,28,0.00
2013-12-24,46,31,19,24,18,12,88,60,38,30.44,30.36,12,2,12,0.00
2013-12-25,48,37,27,23,18,11,55,45,38,30.39,30.30,12,5,12,0.00
2013-12-26,56,41,32,29,20,15,52,42,35,30.30,30.18,12,5,12,0.00
2013-12-27,50,37,26,24,17,13,61,45,37,30.21,30.09,11,3,11,0.00
2013-12-28,46,28,15,22,12,4,74,54,38,30.36,30.21,6,1,10,0.00
2013-12-29,46,31,17,22,12,5,70,46,38,30.36,30.18,11,3,11,0.00
2013-12-30,48,39,33,22,18,15,51,43,37,30.21,30.12,13,4,13,0.00
2013-12-31,51,40,30,26,19,14,52,42,37,30.27,30.15,9,2,9,0.00
2014-1-1,51,35,25,26,19,12,79,54,38,30.30,30.21,8,2,8,0.00
2014-1-2,56,41,26,29,23,18,84,51,36,30.24,30.00,11,4,15,0.00